Location: Nijmegen RU
(51.8233°N, 354.1314°E)
Time: 20:56:14
(UTC+01:00)

Envisat - Pass Details

Date: 27 February 2019
Orbit: 764 x 766 km, 98.2° (Epoch: 18 March)

Event Time Altitude Azimuth Distance (km) Brightness Sun altitude
Rises 07:33:33 0° 27° (NNE) 3,245 6.6 -7.0°
Reaches altitude 10° 07:36:50 10° 49° (NE) 2,312 6.2 -6.5°
Maximum altitude 07:39:53 16° 86° (E) 1,932 6.6 -6.1°
Drops below altitude 10° 07:42:55 10° 123° (ESE) 2,301 6.7 -5.6°
Sets 07:46:09 0° 145° (SE) 3,221 6.9 -5.1°
